Content
SEND FEEDBACK

Daily
Averages
Monthly
Summary
China

KASHI, CHINA


Home > Asia > China
Elevation: 4236 feet     Latitude: 39 28N     Longitude: 075 58E

WEATHER
 
SELECT A DAY
Number of Records: 109,228;   Date Range: 7/6/03 - 7/28/14
 
SHARE

PRINT THIS DATA

[ ← Previous Day ]
WEATHER ALMANAC - NOVEMBER 16, 2013
[ Next Day → ]
[ °C ]   °F
Weather ElementAverageHighLow
Temperature35.7 °F47 °F (5:00 pm)28 °F (8:00 am)
Dewpoint27.4 °F29 °F (2:00 am)24.8 °F (6:00 pm)
Humidity72.2 %93 % (8:00 am)32 % (5:00 pm)
Barometer30.35 in30.51 in (11:00 am)30.27 in (4:00 pm)
Wind Speed3.9 mph8.9 mph (10:00 am)
Weather ElementAverage
Visibility3.1 mi
Wind DirectionSSW (213.6 °)

Weather ElementTotal
Precipitation---
Heating Degree Days27.5 (Base 65)
Averaged from 37 records on November 16, 2013
WEATHER CONDITIONS BREAKOUT
WIND DIRECTION BREAKOUT
WEATHER BY HOUR - NOVEMBER 16, 2013
[ °C ]   °F
Local TimeTemperatureDewpointHumidityBarometerVisibilityWind DirectionWind SpeedGust SpeedPrecipitationEventsConditions
12:30 AM33.8 °F28.4 °F81 %30.36 inNNW (330°)4.5 mphMist
1:30 AM33.8 °F28.4 °F81 %30.36 inCalmMist
2:00 AM31.0 °F29.0 °F89 %30.49 in6.0 miSW (220°)2.2 mphClear
2:00 AM33.8 °F28.4 °F81 %30.36 inCalmMist
2:30 AM32.0 °F26.6 °F80 %30.36 inCalmMist
3:00 AM32.0 °F28.4 °F87 %30.36 inNNW (340°)4.5 mphMist
3:30 AM32.0 °F28.4 °F87 %30.33 inNNW (340°)6.7 mphMist
4:00 AM32.0 °F28.4 °F87 %30.33 inNNW (330°)6.7 mphMist
4:30 AM32.0 °F26.6 °F80 %30.33 inNNW (330°)6.7 mphMist
5:00 AM32.0 °F28.4 °F87 %30.33 in2.2 miNNW (330°)6.7 mphMist
5:00 AM30.0 °F28.0 °F87 %30.43 in6.0 miWSW (250°)2.2 mphClear
5:30 AM32.0 °F26.6 °F80 %30.30 inNNW (330°)6.7 mphMist
6:00 AM32.0 °F26.6 °F80 %30.30 in1.2 miNNW (330°)6.7 mphMist
7:00 AM32.0 °F26.6 °F80 %30.30 in1.2 miNorth (360°)4.5 mphMist
8:00 AM28.0 °F27.0 °F93 %30.46 in6.0 miWSW (250°)2.2 mphClear
8:00 AM30.2 °F26.6 °F86 %30.30 in1.2 miNNW (330°)6.7 mphMist
9:00 AM30.2 °F26.6 °F86 %30.33 in1.6 miNNW (330°)6.7 mphMist
10:00 AM30.2 °F26.6 °F86 %30.33 in1.6 miNNW (330°)8.9 mphMist
11:00 AM32.0 °F26.6 °F80 %30.33 in1.6 miNW (310°)6.7 mphMist
11:00 AM30.0 °F29.0 °F92 %30.51 in5.0 miWSW (250°)2.2 mphSmoke
12:00 PM33.8 °F28.4 °F81 %30.36 in1.9 miWNW (290°)2.2 mph
1:00 PM39.2 °F28.4 °F65 %30.33 in1.9 miVariable2.2 mph
2:00 PM42.0 °F27.0 °F43 %30.45 in6.0 miWSW (250°)2.2 mphClear
2:00 PM42.8 °F26.6 °F53 %30.33 in1.9 miCalm
3:00 PM42.8 °F26.6 °F53 %30.30 in2.2 miSouth (170°)4.5 mph
4:00 PM44.6 °F26.6 °F49 %30.27 in1.6 miVariable2.2 mphSmoke
5:00 PM47.0 °F27.0 °F32 %30.37 in7.0 miSE (140°)2.2 mphClear
5:00 PM46.4 °F26.6 °F46 %30.27 in1.6 miSE (130°)4.5 mphSmoke
6:00 PM44.6 °F24.8 °F46 %30.27 in1.6 miSSE (150°)6.7 mphSmoke
7:00 PM44.6 °F24.8 °F46 %30.27 in1.9 miSSE (160°)4.5 mph
8:00 PM40.0 °F26.0 °F45 %30.43 in7.0 miCalmClear
8:00 PM41.0 °F28.4 °F61 %30.30 in2.2 miEast (90°)2.2 mph
9:00 PM39.2 °F28.4 °F65 %30.30 in2.2 miNE (50°)2.2 mph
10:00 PM37.4 °F28.4 °F70 %30.33 in2.2 miNorth (360°)4.5 mph
11:00 PM34.0 °F29.0 °F77 %30.49 in6.0 miWSW (250°)2.2 mphClear
11:00 PM35.6 °F28.4 °F75 %30.33 in2.2 miVariable4.5 mph
11:30 PM35.6 °F28.4 °F75 %30.33 in3.7 miNorth (360°)4.5 mphMist
Hourly data recorded from ZWSH, located miles away from Kashi, China







STORIES FROM OUR PARTNERS